Volver al catálogo

STARLINK-35665

ActivoComunicacionesVLEO
NORAD 66390·PAYLOAD·🇺🇸 United States

Lanzado Nov 8, 2025 desde Cape Canaveral Space Force Station

Loading…

Próximos Pases (próximas 24 horas)

TLE

ActualizadoSource: CelesTrak SupGP

Época: Sep 14, 2026, 23:02 UTC

1 66390C 25257L   26257.96020833  .00023373  00000+0  69067-3 0  2573
2 66390  53.1581  55.2630 0001093  77.3575  93.4492 15.34373871    11

Sigue STARLINK-35665 en tiempo real con AllMySat

Download on the App Store